User: anonymous   Login
Location: Clatteringshaws Loch
(55.0508°N, 4.2860°W)
Time: 00:57:01
(UTC+01:00)
Language:

Cosmos 2221 Rocket - Orbit

View from above orbital plane
View from above orbital plane
View from above satellite
View from above satellite

Ground track
Ground track

The orbit data is extracted from the following two-line orbital elements,

1 22237U 92080B   14294.73106668  .00000611  00000-0  81338-4 0  4745
2 22237 082.5098 299.3682 0021355 133.0139 265.8324 14.77927092180226
Epoch (UTC): 21 October 2014 17:32:44
Eccentricity: 0.0021355
inclination: 82.5098°
perigee height: 621 km
apogee height: 651 km
right ascension of ascending node: 299.3682°
argument of perigee: 133.0139°
revolutions per day: 14.77927092
mean anomaly at epoch: 265.8324°
orbit number at epoch: 18022

The dashed part of the orbit path shows where the satellite is in the earth's shadow,  

DLR